Printer-friendly version

IAU Minor Planet Center

Minor Planet Center

MPEC 2006-V49 : 2006 VX2

The following Minor Planet Electronic Circular may be linked-to from your own Web pages, but must not otherwise be redistributed electronically.


Read MPEC 2006-V48 Read MPEC 2006-V50


M.P.E.C. 2006-V49                                Issued 2006 Nov. 13, 17:35 UT

     The Minor Planet Electronic Circulars contain information on unusual
         minor planets and routine data on comets.  They are published
   on behalf of Commission 20 of the International Astronomical Union by the
          Minor Planet Center, Smithsonian Astrophysical Observatory,
                          Cambridge, MA 02138, U.S.A.

             Prepared using the Tamkin Foundation Computer Network

                              MPC@CFA.HARVARD.EDU
          URL http://cfa-www.harvard.edu/iau/mpc.html  ISSN 1523-6714

                                   2006 VX2

Observations:
     K06V02X* C2006 11 11.36589 02 37 26.47 +21 10 45.6          17.9 V EV049703
     K06V02X  C2006 11 11.37373 02 37 15.52 +21 12 17.1          17.7 V EV049703
     K06V02X  C2006 11 11.38160 02 37 04.54 +21 13 48.3          17.8 V EV049703
     K06V02X  C2006 11 11.38943 02 36 53.64 +21 15 18.9          18.1 V EV049703
     K06V02X  C2006 11 11.45288 02 35 25.22 +21 27 35.0          17.9 V EV049703
     K06V02X  C2006 11 11.45341 02 35 24.54 +21 27 40.6          17.6 V EV049703
     K06V02X  C2006 11 11.45394 02 35 23.78 +21 27 47.3          17.6 V EV049703
     K06V02X  C2006 11 11.45447 02 35 23.06 +21 27 53.1          17.9 V EV049703
     K06V02X  C2006 11 11.87650 02 25 41.87 +22 54 44.9          18.0 V EV049595
     K06V02X  C2006 11 11.88065 02 25 35.35 +22 55 38.4                 EV049595
     K06V02X  C2006 11 11.88479 02 25 28.83 +22 56 31.3                 EV049595
     K06V02X  C2006 11 11.89736 02 25 08.99 +22 59 12.6          17.8 V EV049595
     K06V02X  C2006 11 11.90063 02 25 03.81 +22 59 54.7          17.9 V EV049595
     K06V02X  C2006 11 12.19969 02 17 17.90 +24 05 15.0          18.4 R EV049H36
     K06V02X  C2006 11 12.20376 02 17 11.01 +24 06 08.3          18.6 R EV049H36
     K06V02X  C2006 11 12.20783 02 17 03.89 +24 07 02.3          17.6 R EV049H36
     K06V02X  C2006 11 12.21190 02 16 56.90 +24 07 57.6          18.1 R EV049H36
     K06V02X  C2006 11 12.21573 02 16 50.34 +24 08 47.6          18.0 R EV049H36
     K06V02X  C2006 11 12.24166 02 16 09.62 +24 15 00.3          17.6 V EV049703
     K06V02X  C2006 11 12.24208 02 16 08.90 +24 15 05.9          17.6 V EV049703
     K06V02X  C2006 11 12.24249 02 16 08.22 +24 15 11.6          17.6 V EV049703
     K06V02X  C2006 11 12.24289 02 16 07.46 +24 15 16.4          17.5 V EV049703
     K06V02X  C2006 11 12.26877 02 15 22.42 +24 21 02.4          18.2 R EV049854
     K06V02X  C2006 11 12.26922 02 15 21.61 +24 21 08.4          18.4 R EV049854
     K06V02X  C2006 11 12.27283 02 15 15.25 +24 21 57.3          17.2 R EV049854
     K06V02X  C2006 11 12.35121 02 13 07.96 +24 42 58.6          17.5 V EV049F84
     K06V02X  C2006 11 12.36487 02 12 43.20 +24 46 03.8          17.5 V EV049F84
     K06V02X  C2006 11 12.45874 02 10 04.62 +25 08 23.1          17.7 R EV049474
     K06V02X  C2006 11 12.45943 02 10 03.37 +25 08 33.1          17.9 R EV049474
     K06V02X  C2006 11 12.46013 02 10 02.09 +25 08 42.5          17.7 R EV049474
     K06V02X  C2006 11 12.53027 02 07 53.60 +25 24 35.5          17.9 R EV049474
     K06V02X  C2006 11 12.53096 02 07 52.36 +25 24 45.0          17.6 R EV049474
     K06V02X  C2006 11 12.53271 02 07 49.12 +25 25 08.0          17.6 R EV049474
     K06V02X  C2006 11 12.53409 02 07 46.61 +25 25 26.8          17.6 R EV049474
     K06V02X  C2006 11 12.57803 02 06 37.78 +25 31 34.0          20.4 V EV049D35
     K06V02X  C2006 11 12.57907 02 06 36.09 +25 31 46.2          20.6 V EV049D35
     K06V02X  C2006 11 12.57949 02 06 35.21 +25 31 53.4          20.6 V EV049D35
     K06V02X  C2006 11 12.58053 02 06 33.35 +25 32 06.9          20.6 V EV049D35
     K06V02X  C2006 11 12.58118 02 06 31.86 +25 32 17.0          20.6 V EV049D35
     K06V02X  C2006 11 12.58222 02 06 30.16 +25 32 29.7          20.3 V EV049D35
     K06V02X  C2006 11 12.72344 02 02 24.04 +26 02 32.7          17.4 R EV049473
     K06V02X  C2006 11 12.73329 02 02 05.46 +26 04 54.7          17.6 R EV049473
     K06V02X  C2006 11 12.73668 02 01 59.09 +26 05 45.0          17.7 R EV049473
     K06V02X  C2006 11 12.73777 02 01 57.04 +26 06 01.1          17.8 R EV049473
     K06V02X  C2006 11 12.79728 02 00 02.66 +26 20 14.1          18.0 V EV049595
     K06V02X  C2006 11 12.79822 02 00 00.84 +26 20 26.7          17.6 R EV049473
     K06V02X  C2006 11 12.80057 01 59 56.20 +26 21 01.3          17.8 V EV049595
     K06V02X  C2006 11 12.80984 01 59 38.15 +26 23 13.3          17.8 R EV049473
     K06V02X  C2006 11 13.05236 01 51 55.90 +27 20 32.6          18.1 R EV049448
     K06V02X  C2006 11 13.05489 01 51 50.71 +27 21 10.0          18.2 R EV049448
     K06V02X  C2006 11 13.05798 01 51 44.39 +27 21 55.9          18.3 R EV049448
     K06V02X  C2006 11 13.06079 01 51 38.61 +27 22 37.7          18.2 R EV049448
     K06V02X  C2006 11 13.06374 01 51 32.52 +27 23 21.5          17.8 R EV049448
     K06V02X  C2006 11 13.06641 01 51 27.02 +27 24 00.4          18.4 R EV049448
     K06V02X  C2006 11 13.06809 01 51 18.77 +27 24 42.1          18.3 R EV049850
     K06V02X  C2006 11 13.07550 01 51 03.41 +27 26 30.3          17.9 R EV049850
     K06V02X  C2006 11 13.08199 01 50 49.70 +27 28 04.7          18.0 R EV049850
     K06V02X  C2006 11 13.08874 01 50 35.41 +27 29 44.1          18.8 R EV049850
     K06V02X  C2006 11 13.09431 01 50 23.61 +27 31 05.0          18.7 R EV049850
     K06V02X 5C2006 11 13.17056 01 47 49.41 +27 49 12.2          18.2 R EV049673
     K06V02X 5C2006 11 13.17368 01 47 42.70 +27 49 57.5                 EV049673
     K06V02X 5C2006 11 13.17737 01 47 34.70 +27 50 51.9                 EV049673
     K06V02X 5C2006 11 13.18120 01 47 26.41 +27 51 47.8                 EV049673
     K06V02X  C2006 11 13.19197 01 47 01.10 +27 54 39.0          18.1 V EV049G96
     K06V02X  C2006 11 13.19233 01 47 00.31 +27 54 44.3          18.2 V EV049G96
     K06V02X  C2006 11 13.19269 01 46 59.55 +27 54 49.5          18.2 V EV049G96
     K06V02X  C2006 11 13.19305 01 46 58.76 +27 54 54.8          18.1 V EV049G96
     K06V02X 2C2006 11 13.36231 01 40 41.89 +28 34 37.3          18.3 R EV049H06
     K06V02X 2C2006 11 13.36700 01 40 31.46 +28 35 40.6          17.6 R EV049H06

Observer details:
448 Desert Moon Observatory.  Observer B. L. Stevens.  0.3-m
    Schmidt-Cassegrain + CCD.
473 Remanzacco.  Observers G. Sostero, E. Guido.  0.45-m f/4.4 Newtonian
    reflector + CCD.
474 Mount John Observatory, Lake Tekapo.  Observer A. C. Gilmore.  1.0-m f/7.7
    reflector + CCD.
595 Farra d'Isonzo.  Observer G. Lombardi.  Measurer E. Pettarin.  0.40-m
    f/4.5 reflector + CCD.
673 Table Mountain Observatory, Wrightwood.  Observer J. Young.  0.61-m f/16
    Cassegrain + CCD.
703 Catalina Sky Survey.  Observer A. R. Gibbs.  Measurers E. C. Beshore,
    E. J. Christensen, G. J. Garradd, A. R. Gibbs, A. D. Grauer, R. E. Hill,
    R. A. Kowalski, S. M. Larson, R. H. McNaught.  0.68-m Schmidt + CCD.
850 Cordell-Lorenz Observatory, Sewanee.  Observers D. T. Durig, E. A. Riddell,
    M. C. House.  0.30-m f/9.7 Schmidt-Cassegrain + 1Kx1K CCD.
854 Sabino Canyon Observatory, Tucson.  Observer J. E. McGaha.  0.36-m f/10.0
    Schmidt-Cassegrain + CCD.
D35 Lulin Observatory.  Observers H.-C. Lin, C.-S. Lin, Q.-z. Ye.  Measurer
    Q.-z. Ye.  0.41-m f/8.8 Ritchey-Chretien + 2Kx2K CCD.
F84 Hibiscus Observatory, Punaauia.  Observer N. Teamo.  Measurer J. C. Pelle.
    0.35-m f/3.88 Schmidt-Cassegrain + 1392x1040 CCD.
G96 Mt. Lemmon Survey.  Observer E. J. Christensen.  Measurers E. C. Beshore,
    E. J. Christensen, G. J. Garradd, A. R. Gibbs, A. D. Grauer, R. E. Hill,
    R. A. Kowalski, S. M. Larson, R. H. McNaught.  1.5-m reflector + CCD.
H06 RAS Observatory, Mayhill.  Observer R. Hutsebaut.  0.25-m reflector + CCD.
H36 Sandlot Observatory, Scranton.  Observer G. Hug.  0.30-m
    Schmidt-Cassegrain + CCD.

Orbital elements:
2006 VX2                                                 Earth MOID = 0.0216 AU
Epoch 2006 Sept. 22.0 TT = JDT 2454000.5                MPC
M 210.14552              (2000.0)            P               Q
n   1.09445028     Peri.  126.50373     -0.98558163     -0.11229130
a   0.9325498      Node    47.42460     +0.03466281     -0.86616927
e   0.2899429      Incl.    9.89698     +0.16561203     -0.48697172
P   0.90           H   24.9           G   0.15           U   7
Residuals in seconds of arc
061111 703  0.1-  0.2-    061112 854  0.0   0.1+    061112 595  0.7-  0.1-
061111 703  0.1-  0.2+    061112 854  0.6-  1.0+    061112 473  0.0   0.2+
061111 703  0.1-  0.1-    061112 F84  0.1+  0.2-    061113 448  0.1-  0.0
061111 703  0.3+  0.4-    061112 F84 (2.1-  0.4+)   061113 448  0.2-  0.1-
061111 703  0.7-  0.1+    061112 474  0.2+  0.2-    061113 448  0.1+  0.0
061111 703  0.0   0.4-    061112 474  0.3+  0.3+    061113 448  0.1+  0.1+
061111 703  0.3-  0.2+    061112 474  0.1+  0.2+    061113 448  0.2-  0.2+
061111 703  0.1-  0.2-    061112 474  0.6-  0.0     061113 448  0.1-  0.5-
061111 595  0.3+  0.2+    061112 474  0.2-  0.1+    061113 850  1.0-  0.0
061111 595  0.3+  0.3+    061112 474  0.4-  0.5-    061113 850  1.4+  0.1-
061111 595  0.2+  0.0     061112 474  0.1+  0.3-    061113 850  0.7+  0.5-
061111 595  0.1+  0.1-    061112 D35 (2.0-  1.1+)   061113 850  0.0   0.5+
061111 595  0.0   0.1+    061112 D35  1.8+  1.2-    061113 850  0.2-  0.3+
061112 H36  0.9+  0.2+    061112 D35  0.6+  0.2+    061113 673  0.6+  0.1-
061112 H36 (2.1+  0.7-)   061112 D35 (2.1+  0.7-)   061113 673  0.8+  0.4-
061112 H36  0.1+  0.8-    061112 D35  1.4-  0.3+    061113 673  0.3+  0.0
061112 H36  0.1+  0.5+    061112 D35 (2.3+  1.4-)   061113 673  0.2+  0.1-
061112 H36  0.4+  0.4-    061112 473  0.0   0.1-    061113 G96  0.6-  0.0
061112 703  0.4-  0.1+    061112 473  0.3-  0.2+    061113 G96  0.7-  0.0
061112 703  0.2-  0.1+    061112 473  0.2+  1.7+    061113 G96  0.4-  0.0
061112 703  0.2+  0.3+    061112 473 (0.4+  2.1+)   061113 G96  0.4-  0.1+
061112 703  0.7-  0.3-    061112 595  0.1-  0.2-    061113 H06  0.1-  0.5+
061112 854  0.3+  0.1+    061112 473  0.1-  0.1-    061113 H06  0.2+  0.7-

Ephemeris:
2006 VX2                 a,e,i = 0.93, 0.29, 10                  q = 0.6622
Date    TT    R. A. (2000) Decl.     Delta      r     Elong.  Phase     V
2006 11 11    02 45.26   +20 01.1    0.0380   1.028   174.9     4.9    18.3
2006 11 12    02 22.54   +23 22.7    0.0344   1.024   168.0    11.6    18.3
2006 11 13    01 53.42   +27 09.4    0.0313   1.019   159.7    19.7    18.4
2006 11 14    01 16.28   +31 07.3    0.0289   1.015   150.0    29.2    18.5
2006 11 15    00 30.19   +34 45.9    0.0273   1.010   139.0    39.9    18.7
2006 11 16    23 36.54   +37 22.6    0.0268   1.005   127.3    51.5    19.0
2006 11 17    22 40.09   +38 23.4    0.0272   1.001   115.5    63.1    19.3
2006 11 18    21 47.19   +37 47.7    0.0286   0.996   104.4    74.0    19.8
2006 11 19    21 02.18   +36 05.0    0.0309   0.991    94.7    83.5    20.3
2006 11 20    20 26.01   +33 51.1    0.0338   0.987    86.4    91.7    20.8
2006 11 21    19 57.61   +31 31.6    0.0372   0.982    79.4    98.5    21.3

Kyle E. Smalley              (C) Copyright 2006 MPC           M.P.E.C. 2006-V49

Read MPEC 2006-V48 Read MPEC 2006-V50


Our Web policy. Index to the CBAT/MPC/ICQ pages.


Valid HTML 4.01!